DW8710 Weather Reports


Display with metric or nautical units.
time (UTC)temp
F
wind
direction
speed
MPH
gust
MPH
rain 1hr
in
rain 24hr
in
rain mn
in
humidity
%
barometer
mb
20210620182355 60 95 1.0 5.0 0.00 0.01 0.00 92
20210620181255 60 93 1.0 9.0 0.00 0.01 0.00 91
20210620180147 60 80 1.0 5.0 0.00 0.01 0.00 91
20210620175047 60 66 1.0 7.0 0.00 0.01 0.00 91
20210620173940 60 111 1.0 5.0 0.00 0.01 0.00 91
20210620172840 60 55 1.0 5.0 0.00 0.01 0.00 90
20210620171733 60 62 1.0 7.0 0.00 0.01 0.00 90
20210620170626 61 69 1.0 7.0 0.00 0.01 0.00 90
20210620165449 61 58 0.0 6.0 0.00 0.01 0.00 89
20210620164312 61 78 1.0 9.0 0.00 0.01 0.00 89
20210620163212 61 60 2.0 7.0 0.00 0.01 0.00 90
20210620162105 61 55 1.0 5.0 0.00 0.01 0.00 90
20210620160858 61 37 2.0 7.0 0.00 0.01 0.00 90
20210620155750 61 52 1.0 7.0 0.00 0.01 0.00 90
20210620154644 61 32 2.0 6.0 0.00 0.01 0.00 89
20210620153537 61 37 2.0 8.0 0.00 0.01 0.00 89
20210620152400 61 53 2.0 9.0 0.00 0.01 0.00 90
20210620151223 61 31 2.0 6.0 0.00 0.01 0.00 89
20210620150046 61 54 2.0 6.0 0.00 0.01 0.00 89
20210620144939 61 26 1.0 7.0 0.00 0.01 0.00 90
20210620143832 61 50 2.0 8.0 0.00 0.01 0.00 90
20210620142655 61 43 2.0 8.0 0.00 0.01 0.00 90
20210620141518 61 36 1.0 6.0 0.00 0.01 0.00 89
20210620140411 62 59 0.0 3.0 0.00 0.01 0.00 88
20210620135310 62 125 0.0 4.0 0.00 0.01 0.00 88
20210620134209 62 130 0.0 1.0 0.00 0.01 0.00 89
20210620133032 61 130 0.0 1.0 0.00 0.01 0.00 89
20210620131925 61 96 0.0 1.0 0.00 0.01 0.00 89
20210620130818 61 36 0.0 3.0 0.00 0.01 0.00 90
20210620125711 61 140 0.0 1.0 0.00 0.01 0.00 90
20210620124604 61 104 0.0 2.0 0.00 0.01 0.00 90
20210620123457 61 98 0.0 2.0 0.00 0.01 0.00 90
20210620122321 61 92 0.0 4.0 0.00 0.01 0.00 90
20210620121144 61 94 0.0 2.0 0.00 0.01 0.00 90
20210620120007 61 101 0.0 2.0 0.00 0.01 0.00 90
20210620114900 61 27 0.0 2.0 0.00 0.01 0.00 91
20210620113723 60 38 0.0 1.0 0.00 0.01 0.00 91
20210620112546 60 131 0.0 1.0 0.00 0.01 0.00 92
20210620111409 60 104 1.0 3.0 0.00 0.01 0.00 93
20210620110302 59 67 1.0 6.0 0.00 0.01 0.00 96
20210620105156 58 56 0.0 3.0 0.00 0.01 0.00 96
20210620104019 58 35 0.0 3.0 0.00 0.01 0.00 96
20210620102912 58 22 0.0 3.0 0.00 0.01 0.00 97
20210620101805 58 26 1.0 3.0 0.00 0.01 0.00 97
20210620100658 58 103 1.0 5.0 0.00 0.01 0.00 98
20210620095551 57 69 0.0 4.0 0.00 0.01 0.00 98
20210620094445 57 0 0.0 0.0 0.00 0.01 0.00 97
20210620093308 57 0 0.0 0.0 0.00 0.01 0.00 97
20210620092201 57 0 0.0 0.0 0.00 0.01 0.00 96
20210620091053 57 0 0.0 0.0 0.00 0.01 0.00 96
20210620085946 57 0 0.0 0.0 0.00 0.01 0.00 96
20210620084810 56 0 0.0 0.0 0.00 0.01 0.00 97
20210620083702 56 0 0.0 0.0 0.00 0.01 0.00 97
20210620082556 56 0 0.0 0.0 0.00 0.01 0.00 97
20210620081449 56 0 0.0 0.0 0.00 0.01 0.00 97
20210620080342 56 119 0.0 1.0 0.00 0.01 0.00 97
20210620075135 55 117 0.0 5.0 0.00 0.01 0.00 98
20210620074027 55 51 1.0 4.0 0.00 0.01 0.00 97
20210620072850 55 81 0.0 3.0 0.00 0.01 0.00 98
20210620071743 55 122 0.0 2.0 0.00 0.01 0.00 98
20210620070637 55 118 0.0 2.0 0.00 0.01 0.00 98
20210620065530 55 111 0.0 2.0 0.00 0.01 0.00 98
20210620064353 54 85 1.0 4.0 0.00 0.01 0.00 98
20210620063246 54 70 0.0 4.0 0.00 0.01 0.00 97
20210620062139 54 45 0.0 3.0 0.00 0.01 0.00 97
20210620061008 55 46 0.0 3.0 0.00 0.01 0.00 97
20210620055908 55 46 0.0 1.0 0.00 0.01 0.00 97
20210620054808 55 64 0.0 2.0 0.00 0.01 0.00 97
20210620053707 55 89 0.0 3.0 0.00 0.01 0.00 97
20210620052608 54 80 0.0 3.0 0.00 0.01 0.00 97
20210620051508 54 79 0.0 5.0 0.00 0.01 0.00 97
20210620050408 54 81 0.0 3.0 0.00 0.01 0.00 97
20210620045307 54 110 0.0 3.0 0.00 0.01 0.00 97
20210620044207 54 116 1.0 3.0 0.00 0.01 0.00 97
20210620043106 54 76 0.0 3.0 0.00 0.01 0.00 97
20210620042006 54 109 0.0 2.0 0.00 0.01 0.00 97
20210620040906 54 67 0.0 3.0 0.00 0.01 0.00 97
20210620035806 54 99 0.0 1.0 0.00 0.01 0.00 97
20210620034706 54 86 0.0 3.0 0.00 0.01 0.00 97
20210620033606 54 106 0.0 5.0 0.00 0.01 0.00 97
20210620032505 54 100 0.0 3.0 0.00 0.01 0.00 97
20210620031405 54 66 0.0 3.0 0.00 0.01 0.00 98
20210620030305 54 75 0.0 7.0 0.00 0.01 0.00 98
20210620025205 54 32 0.0 3.0 0.00 0.01 0.00 98
20210620024104 54 99 0.0 3.0 0.00 0.01 0.00 98
20210620023004 54 72 0.0 1.0 0.00 0.01 0.00 98
20210620021904 54 33 0.0 3.0 0.00 0.01 0.00 98
20210620020804 54 42 0.0 2.0 0.00 0.01 0.00 98
20210620015704 54 28 0.0 3.0 0.00 0.01 0.00 98
20210620014604 54 42 1.0 3.0 0.00 0.01 0.00 98
20210620013503 54 70 0.0 2.0 0.00 0.01 0.00 98
20210620012403 54 105 0.0 3.0 0.00 0.01 0.00 98
20210620011303 54 89 0.0 4.0 0.00 0.01 0.00 97
20210620010202 55 94 0.0 3.0 0.00 0.01 0.00 98
20210620005102 55 82 0.0 4.0 0.00 0.01 0.00 97
20210620004002 55 114 0.0 2.0 0.00 0.01 0.00 97
20210620002902 55 97 0.0 4.0 0.00 0.01 0.00 97
20210620001802 55 102 0.0 3.0 0.00 0.01 0.00 97
20210620000702 55 95 0.0 1.0 0.00 0.01 0.00 97
20210619235601 55 90 0.0 1.0 0.00 0.01 0.00 97
20210619234501 55 96 0.0 4.0 0.00 0.01 0.00 97
20210619233401 55 104 0.0 3.0 0.00 0.01 0.00 97
20210619232300 55 82 0.0 4.0 0.00 0.01 0.00 97
20210619231200 55 114 0.0 2.0 0.00 0.01 0.00 96
20210619230100 55 111 0.0 5.0 0.00 0.01 0.00 96
20210619225000 56 109 0.0 6.0 0.00 0.01 0.01 96
20210619223900 56 52 0.0 1.0 0.00 0.01 0.01 95
20210619222800 56 109 0.0 3.0 0.00 0.01 0.01 95
20210619221700 56 82 0.0 2.0 0.00 0.01 0.01 95
20210619220559 56 0 0.0 0.0 0.00 0.01 0.01 95
20210619215459 56 106 0.0 5.0 0.00 0.02 0.01 95
20210619214400 56 78 0.0 2.0 0.00 0.02 0.01 94
20210619213259 56 39 0.0 2.0 0.00 0.02 0.01 94
20210619212159 56 100 0.0 5.0 0.00 0.02 0.01 95
20210619211059 56 92 0.0 2.0 0.00 0.02 0.01 95
20210619205959 56 134 0.0 3.0 0.00 0.02 0.01 94
20210619204859 57 124 0.0 2.0 0.00 0.03 0.01 94
20210619203759 57 105 0.0 2.0 0.00 0.03 0.01 94
20210619202659 57 93 0.0 7.0 0.00 0.03 0.01 94
20210619201559 57 94 0.0 6.0 0.00 0.04 0.01 95
20210619200459 57 92 1.0 3.0 0.00 0.04 0.01 95
20210619195359 57 175 0.0 2.0 0.01 0.04 0.01 96
20210619194259 57 79 0.0 7.0 0.01 0.04 0.01 96
20210619193159 57 86 0.0 5.0 0.01 0.05 0.01 96
20210619192059 57 136 0.0 5.0 0.01 0.06 0.01 96
20210619190959 57 135 0.0 3.0 0.01 0.06 0.01 97
20210619185859 57 71 0.0 3.0 0.01 0.06 0.01 96
20210619184759 57 87 0.0 3.0 0.00 0.06 0.00 97
20210619183659 57 88 0.0 3.0 0.00 0.06 0.00 97